Amateur Radio Satellites - All Passes

Search period start: 20 June 2013 08:50
Search period end: 21 June 2013 08:50
Location: Melbourne, 37.8666°S, 145.1333°E

Satellite Date Start Highest point End Downlink Frequencies (MHz)
Time Altitude Azimuth
OPAL 20 Jun 08:52:52 08:55:51 16° 120° (ESE) 08:58:52 ?
PANSAT 20 Jun 09:05:55 09:08:26 16° 12° (NNE) 09:10:58 not established
JAS-1B 20 Jun 09:10:15 09:14:19 14° 262° (W) 09:18:39 435.800 - 435.900 CW/SSB
JAS-2 20 Jun 09:25:54 09:31:25 68° 281° (W) 09:37:41 435.800 - 435.900 CW/SSB, 435.910 FM
HO-68 20 Jun 09:29:51 09:36:52 56° 282° (WNW) 09:43:59 435.675 MHz FM
Oscar 11 20 Jun 09:35:56 09:40:17 70° 281° (WNW) 09:44:41 145.825 FM, Beacon 2401.500 USB
RS-15 20 Jun 09:46:52 09:58:17 48° 289° (WNW) 10:09:43 29.354 - 29.394 USB, Beacon 29.352 USB
ISS 20 Jun 09:55:45 09:59:10 66° 142° (SE) 10:02:32 145.800 FM
Saudisat 1A 20 Jun 10:21:26 10:25:25 37° 233° (SW) 10:29:26 436.775 MHz
OPAL 20 Jun 10:29:02 10:34:08 66° 284° (WNW) 10:39:22 ?
PANSAT 20 Jun 10:45:12 10:48:13 21° 359° (N) 10:51:14 not established
KITSAT 1 20 Jun 11:17:57 11:19:54 11° 156° (SSE) 11:21:50 435.175 FM
SO-50 20 Jun 11:30:51 11:33:12 14° 72° (ENE) 11:35:35 436.795 FM
ISS 20 Jun 11:34:12 11:35:28 12° 307° (NW) 11:36:44 145.800 FM
PCSat 20 Jun 11:45:44 11:50:46 40° 69° (ENE) 11:55:50 145.825 MHz
Sapphire 20 Jun 12:19:52 12:25:17 79° 65° (ENE) 12:30:45 437.095 MHz 1200 baud AX-25 AFSK
PANSAT 20 Jun 12:25:47 12:27:59 14° 346° (NNW) 12:30:10 not established
ITAMSAT 1 20 Jun 12:58:33 12:59:36 11° 90° (E) 13:00:40 435.822 SSB
AO-27 20 Jun 12:59:17 13:00:53 11° 90° (E) 13:02:29 436.795 MHz FM
SO-50 20 Jun 13:08:48 13:13:17 57° 236° (SW) 13:17:54 436.795 FM
KITSAT 1 20 Jun 13:10:35 13:18:03 39° 130° (SE) 13:25:26 435.175 FM
Oscar 16 20 Jun 13:14:50 13:19:10 26° 85° (E) 13:23:28 437.025 USB, Beacon 2401.1428
Uribyol 2 20 Jun 13:29:12 13:33:28 25° 85° (E) 13:37:42 436.500 FM
PCSat 20 Jun 13:29:42 13:34:18 27° 232° (SW) 13:38:56 145.825 MHz
Sapphire 20 Jun 14:06:00 14:09:21 16° 226° (SW) 14:12:43 437.095 MHz 1200 baud AX-25 AFSK
Oscar 19 20 Jun 14:08:09 14:13:27 73° 78° (ENE) 14:18:40 437.125 CW, 437.150 USB
ITAMSAT 1 20 Jun 14:34:25 14:39:41 80° 255° (WSW) 14:44:54 435.822 SSB
AO-27 20 Jun 14:35:41 14:40:57 76° 255° (WSW) 14:46:09 436.795 MHz FM
Gurwin Techsat 1B 20 Jun 14:36:41 14:39:10 13° 90° (E) 14:41:39 435.225 FM
UOSAT-12 20 Jun 14:46:44 14:50:49 32° 67° (ENE) 14:54:54 437.025 FM, 437.400 FM
Oscar 16 20 Jun 14:53:47 14:58:34 36° 249° (WSW) 15:03:18 437.025 USB, Beacon 2401.1428
KITSAT 1 20 Jun 15:05:54 15:13:33 48° 290° (WNW) 15:21:09 435.175 FM
AO-Echo 20 Jun 15:07:06 15:12:04 81° 78° (ENE) 15:16:49 ?
Uribyol 2 20 Jun 15:08:13 15:13:00 37° 250° (WSW) 15:17:45 436.500 FM
Uosat F 20 Jun 15:26:50 15:31:41 44° 81° (E) 15:36:27 435.120 FM
TMSAT-1 20 Jun 15:33:50 15:38:38 33° 83° (E) 15:43:23 436.925 FM
MaSat-1 20 Jun 15:47:40 15:54:27 36° 124° (SE) 16:01:10 437.345 MHz
Oscar 19 20 Jun 15:49:34 15:52:08 14° 242° (WSW) 15:54:40 437.125 CW, 437.150 USB
Gurwin Techsat 1B 20 Jun 16:14:16 16:19:38 69° 254° (WSW) 16:24:55 435.225 FM
UOSAT-12 20 Jun 16:27:00 16:30:58 28° 230° (SW) 16:34:57 437.025 FM, 437.400 FM
AO-7 20 Jun 16:34:21 16:41:59 38° 81° (E) 16:49:32 29.400 - 29.500 MHz
AO-Echo 20 Jun 16:48:58 16:50:05 11° 240° (WSW) 16:51:11 ?
STRAND 1 20 Jun 16:57:25 17:01:25 23° 114° (ESE) 17:05:26 ?
Uosat F 20 Jun 17:06:28 17:10:08 21° 245° (WSW) 17:13:47 435.120 FM
Saudisat 1A 20 Jun 17:11:56 17:13:57 13° 137° (SE) 17:15:58 436.775 MHz
TMSAT-1 20 Jun 17:13:52 17:18:27 29° 248° (WSW) 17:22:59 436.925 FM
MaSat-1 20 Jun 17:29:30 17:36:41 50° 287° (WNW) 17:43:36 437.345 MHz
Hamsat 20 Jun 18:09:16 18:10:51 12° 89° (E) 18:12:25 145.90 MHz
AO-7 20 Jun 18:26:59 18:34:47 46° 244° (WSW) 18:42:33 29.400 - 29.500 MHz
STRAND 1 20 Jun 18:35:32 18:40:21 40° 278° (W) 18:45:12 ?
Saudisat 1A 20 Jun 18:49:46 18:54:10 79° 299° (WNW) 18:58:36 436.775 MHz
JAS-1B 20 Jun 19:02:42 19:11:54 45° 85° (E) 19:19:53 435.800 - 435.900 CW/SSB
Hamsat 20 Jun 19:43:01 19:47:12 52° 254° (WSW) 19:51:22 145.90 MHz
SO-50 20 Jun 20:03:49 20:05:45 12° 140° (SE) 20:07:40 436.795 FM
SO-67 20 Jun 20:05:33 20:09:13 84° 257° (WSW) 20:12:49 435.3500 MHz FM
PCSat 20 Jun 20:35:44 20:40:08 24° 129° (SE) 20:44:31 145.825 MHz
JAS-2 20 Jun 20:36:45 20:42:44 24° 88° (E) 20:48:44 435.800 - 435.900 CW/SSB, 435.910 FM
JAS-1B 20 Jun 20:53:10 21:02:12 45° 244° (WSW) 21:10:15 435.800 - 435.900 CW/SSB
HO-68 20 Jun 20:59:54 21:06:12 32° 83° (E) 21:12:25 435.675 MHz FM
Sapphire 20 Jun 21:09:53 21:15:04 43° 123° (ESE) 21:20:11 437.095 MHz 1200 baud AX-25 AFSK
Oscar 11 20 Jun 21:26:21 21:29:56 24° 85° (E) 21:33:29 145.825 FM, Beacon 2401.500 USB
SO-50 20 Jun 21:42:17 21:47:10 79° 121° (ESE) 21:52:02 436.795 FM
RS-15 20 Jun 21:56:33 22:06:08 36° 75° (ENE) 22:16:06 29.354 - 29.394 USB, Beacon 29.352 USB
AO-40 20 Jun 22:17:33 00:44:26 22° 69° (ENE) 01:57:58 Beacon 2401.320
PCSat 20 Jun 22:18:35 22:23:47 47° 292° (WNW) 22:28:56 145.825 MHz
JAS-2 20 Jun 22:20:28 22:28:07 70° 253° (WSW) 22:35:56 435.800 - 435.900 CW/SSB, 435.910 FM
OPAL 20 Jun 22:41:07 22:46:03 39° 80° (E) 22:50:52 ?
HO-68 20 Jun 22:47:12 22:53:59 46° 247° (WSW) 23:00:43 435.675 MHz FM
Sapphire 20 Jun 22:53:55 22:58:12 24° 287° (WNW) 23:02:28 437.095 MHz 1200 baud AX-25 AFSK
Oscar 11 20 Jun 23:02:24 23:06:06 27° 250° (WSW) 23:09:46 145.825 FM, Beacon 2401.500 USB
UOSAT-12 20 Jun 23:18:27 23:21:44 19° 134° (SE) 23:25:00 437.025 FM, 437.400 FM
SO-50 20 Jun 23:25:51 23:27:08 11° 286° (WNW) 23:28:24 436.795 FM
Oscar 19 20 Jun 23:49:16 23:49:56 10° 121° (ESE) 23:50:35 437.125 CW, 437.150 USB
RS-15 21 Jun 00:06:46 00:17:47 63° 233° (SW) 00:29:29 29.354 - 29.394 USB, Beacon 29.352 USB
JAS-2 21 Jun 00:08:21 00:11:51 14° 236° (SW) 00:15:25 435.800 - 435.900 CW/SSB, 435.910 FM
ITAMSAT 1 21 Jun 00:14:02 00:17:00 16° 118° (ESE) 00:19:59 435.822 SSB
AO-27 21 Jun 00:15:11 00:18:21 16° 117° (ESE) 00:21:31 436.795 MHz FM
OPAL 21 Jun 00:20:27 00:24:40 25° 244° (WSW) 00:28:50 ?
Oscar 16 21 Jun 00:30:10 00:34:40 31° 112° (ESE) 00:39:14 437.025 USB, Beacon 2401.1428
AO-Echo 21 Jun 00:44:00 00:45:02 11° 120° (ESE) 00:46:04 ?
Uribyol 2 21 Jun 00:45:26 00:49:58 32° 112° (ESE) 00:54:33 436.500 FM
UOSAT-12 21 Jun 00:57:47 01:02:10 49° 296° (WNW) 01:06:30 437.025 FM, 437.400 FM
Oscar 19 21 Jun 01:23:15 01:28:25 86° 104° (ESE) 01:33:41 437.125 CW, 437.150 USB
ITAMSAT 1 21 Jun 01:50:46 01:55:56 64° 282° (WNW) 02:01:09 435.822 SSB
AO-27 21 Jun 01:52:11 01:57:20 61° 281° (W) 02:02:33 436.795 MHz FM
Gurwin Techsat 1B 21 Jun 01:55:45 01:59:24 19° 116° (ESE) 02:03:05 435.225 FM
Oscar 16 21 Jun 02:09:31 02:13:58 29° 276° (W) 02:18:29 437.025 USB, Beacon 2401.1428
AO-Echo 21 Jun 02:17:39 02:23:00 85° 104° (ESE) 02:28:19 ?
RS-15 21 Jun 02:24:54 02:33:22 23° 204° (SSW) 02:42:09 29.354 - 29.394 USB, Beacon 29.352 USB
Uribyol 2 21 Jun 02:24:57 02:29:25 29° 276° (W) 02:33:55 436.500 FM
ISS 21 Jun 02:36:42 02:40:03 58° 43° (NE) 02:43:27 145.800 FM
Uosat F 21 Jun 02:38:21 02:43:14 51° 108° (ESE) 02:48:10 435.120 FM
TMSAT-1 21 Jun 02:52:50 02:57:49 43° 109° (ESE) 03:02:52 436.925 FM
AO-7 21 Jun 03:31:18 03:39:03 45° 116° (ESE) 03:46:50 29.400 - 29.500 MHz
Gurwin Techsat 1B 21 Jun 03:33:44 03:38:56 53° 280° (W) 03:44:12 435.225 FM
KITSAT 1 21 Jun 03:37:33 03:44:24 31° 74° (ENE) 03:51:16 435.175 FM
AO-Echo 21 Jun 04:01:38 04:02:20 10° 269° (W) 04:03:03 ?
ISS 21 Jun 04:14:24 04:17:02 20° 206° (SSW) 04:19:42 145.800 FM
Uosat F 21 Jun 04:19:04 04:22:18 17° 273° (W) 04:25:34 435.120 FM
TMSAT-1 21 Jun 04:33:50 04:37:54 22° 274° (W) 04:42:00 436.925 FM
RS-15 21 Jun 04:44:40 04:52:19 18° 167° (SSE) 05:00:07 29.354 - 29.394 USB, Beacon 29.352 USB
AO-7 21 Jun 05:24:13 05:31:50 39° 279° (W) 05:39:31 29.400 - 29.500 MHz
KITSAT 1 21 Jun 05:31:27 05:39:22 56° 236° (SW) 05:47:19 435.175 FM
JAS-1B 21 Jun 05:44:06 05:51:29 34° 120° (ESE) 05:59:45 435.800 - 435.900 CW/SSB
MaSat-1 21 Jun 06:18:13 06:22:02 32° 77° (ENE) 06:26:51 437.345 MHz
Hamsat 21 Jun 06:34:57 06:39:14 88° 103° (ESE) 06:43:33 145.90 MHz
SO-67 21 Jun 06:39:54 06:42:56 26° 108° (ESE) 06:46:01 435.3500 MHz FM
STRAND 1 21 Jun 06:47:42 06:52:53 81° 77° (ENE) 06:58:01 ?
RS-15 21 Jun 06:58:02 07:09:26 43° 135° (SE) 07:20:54 29.354 - 29.394 USB, Beacon 29.352 USB
HO-68 21 Jun 07:27:52 07:33:00 22° 122° (ESE) 07:38:09 435.675 MHz FM
ISS 21 Jun 07:31:53 07:32:58 11° 165° (SSE) 07:34:02 145.800 FM
KITSAT 1 21 Jun 07:32:31 07:36:47 15° 212° (SSW) 07:41:03 435.175 FM
JAS-1B 21 Jun 07:33:14 07:41:18 59° 279° (W) 07:50:46 435.800 - 435.900 CW/SSB
MaSat-1 21 Jun 08:00:01 08:03:59 27° 232° (SW) 08:08:54 437.345 MHz
SO-67 21 Jun 08:14:00 08:16:23 17° 273° (W) 08:18:47 435.3500 MHz FM
Oscar 11 21 Jun 08:20:53 08:23:40 17° 114° (ESE) 08:26:28 145.825 FM, Beacon 2401.500 USB
STRAND 1 21 Jun 08:29:29 08:31:21 12° 241° (WSW) 08:33:14 ?
JAS-2 21 Jun 08:31:18 08:36:36 43° 112° (ESE) 08:42:35 435.800 - 435.900 CW/SSB, 435.910 FM
PANSAT 21 Jun 08:43:19 08:45:56 17° 11° (N) 08:48:33 not established

Developed and maintained by Chris Peat, Heavens-Above GmbH. Please read the updated FAQ before sending e-mail. Imprint. DLR
